Glover Park, Texas, United States
Lat: 32.76N, Lon: 96.71W
Wx Zone: TXZ119
Local Info
Past Weather Observations for Today

NOTE: This archive is for the closest National Weather Service station to Glover Park. Information may differ from the station used for current weather conditions.

Click here for Long-term Archive

Time Weather Temperature Dewpoint Humidity Pressure Winds Precip Visibility
22:35
Clear
68°F / 20°C 66°F / 19°C 94% 30.04 in
(1017 mb)
NE 4.6 mph
(NE 7 kph)
- 10SM
22:15
Clear
70°F / 21°C 66°F / 19°C 88% 30.04 in
(1017 mb)
SSE 5.8 mph
(SSE 9 kph)
- 10SM
21:55
Clear
70°F / 21°C 64°F / 18°C 83% 30.04 in
(1017 mb)
S 9.2 mph
(S 15 kph)
- 10SM
21:35
Clear
70°F / 21°C 66°F / 19°C 88% 30.06 in
(1018 mb)
S 10.4 mph
(S 17 kph)
- 10SM
21:15
Clear
72°F / 22°C 64°F / 18°C 78% 30.06 in
(1018 mb)
SSE 10.4 mph
(SSE 17 kph)
- 10SM
20:55
Partly Cloudy
72°F / 22°C 68°F / 20°C 88% 30.04 in
(1017 mb)
SSE 15 mph
(SSE 24 kph)
0.09 in
(2.29 mm)
10SM
20:35
Mostly Cloudy
73°F / 23°C 70°F / 21°C 89% 30.06 in
(1018 mb)
SSE 9.2 mph
(SSE 15 kph)
0.09 in
(2.29 mm)
10SM
20:15
Mostly Cloudy
72°F / 22°C 68°F / 20°C 88% 30.04 in
(1017 mb)
ESE 15 mph
(ESE 24 kph)
0.09 in
(2.29 mm)
2 1/2SM
19:55
Mostly Cloudy
72°F / 22°C 64°F / 18°C 78% 30.04 in
(1017 mb)
SSE 28.8 mph
(SSE 46 kph)
0.31 in
(7.87 mm)
7SM
19:35
Overcast
75°F / 24°C 72°F / 22°C 89% 30.04 in
(1017 mb)
SE 3.5 mph
(SE 6 kph)
0.26 in
(6.60 mm)
5SM
19:15
Overcast
75°F / 24°C 72°F / 22°C 89% 30.01 in
(1016 mb)
NNW 9.2 mph
(NNW 15 kph)
0.23 in
(5.84 mm)
1 1/4SM
18:50
Overcast
79°F / 26°C 70°F / 21°C 74% 30.01 in
(1016 mb)
ENE 10.4 mph
(ENE 17 kph)
- 2SM
17:50
Mostly Cloudy
82°F / 28°C 72°F / 22°C 70% 29.98 in
(1015 mb)
SE 9.2 mph
(SE 15 kph)
- 10SM
16:50
Partly Cloudy
84°F / 29°C 70°F / 21°C 62% 30.01 in
(1016 mb)
SE 9.2 mph
(SE 15 kph)
- 10SM
15:50
Clear
88°F / 31°C 70°F / 21°C 55% 30.01 in
(1016 mb)
SE 4.6 mph
(SE 7 kph)
- 10SM
14:50
Clear
88°F / 31°C 72°F / 22°C 59% 30.06 in
(1018 mb)
SSE 5.8 mph
(SSE 9 kph)
- 10SM
13:50
Clear
84°F / 29°C 70°F / 21°C 62% 30.06 in
(1018 mb)
SE 6.9 mph
(SE 11 kph)
- 10SM
12:50
Clear
84°F / 29°C 70°F / 21°C 62% 30.06 in
(1018 mb)
SE 9.2 mph
(SE 15 kph)
- 10SM
11:50
Clear
84°F / 29°C 70°F / 21°C 62% 30.06 in
(1018 mb)
ESE 5.8 mph
(ESE 9 kph)
- 10SM
10:50
Clear
79°F / 26°C 68°F / 20°C 70% 30.09 in
(1019 mb)
Calm - 10SM
09:50
Clear
79°F / 26°C 66°F / 19°C 65% 30.09 in
(1019 mb)
E 5.8 mph
(E 9 kph)
- 10SM
08:50
Clear
75°F / 24°C 64°F / 18°C 69% 30.09 in
(1019 mb)
Calm - 10SM
07:50
Clear
70°F / 21°C 64°F / 18°C 83% 30.09 in
(1019 mb)
Calm - 10SM
06:50
Clear
70°F / 21°C 63°F / 17°C 78% 30.09 in
(1019 mb)
W 8.1 mph
(W 13 kph)
- 10SM
05:50
Partly Cloudy
72°F / 22°C 63°F / 17°C 73% 30.12 in
(1020 mb)
Calm - 10SM
05:15
Mostly Cloudy
75°F / 24°C 73°F / 23°C 94% 30.09 in
(1019 mb)
SSW 6.9 mph
(SSW 11 kph)
- 10SM
04:55
Partly Cloudy
73°F / 23°C 73°F / 23°C 100% 30.09 in
(1019 mb)
SW 8.1 mph
(SW 13 kph)
- 7SM
04:35
Partly Cloudy
73°F / 23°C 72°F / 22°C 94% 30.06 in
(1018 mb)
Calm - 5SM
04:15
Clear
73°F / 23°C 72°F / 22°C 94% 30.06 in
(1018 mb)
Calm - 5SM
03:55
Clear
73°F / 23°C 72°F / 22°C 94% 30.06 in
(1018 mb)
Calm - 5SM
03:35
Clear
73°F / 23°C 72°F / 22°C 94% 30.06 in
(1018 mb)
Calm - 5SM
03:15
Clear
73°F / 23°C 72°F / 22°C 94% 30.06 in
(1018 mb)
Calm - 5SM
02:55
Clear
73°F / 23°C 73°F / 23°C 100% 30.04 in
(1017 mb)
N 3.5 mph
(N 6 kph)
- 5SM
02:35
Clear
73°F / 23°C 73°F / 23°C 100% 30.04 in
(1017 mb)
N 3.5 mph
(N 6 kph)
- 5SM
02:15
Clear
73°F / 23°C 73°F / 23°C 100% 30.04 in
(1017 mb)
Calm - 5SM
01:55
Clear
73°F / 23°C 73°F / 23°C 100% 30.04 in
(1017 mb)
Calm - 7SM
01:35
Clear
73°F / 23°C 73°F / 23°C 100% 30.04 in
(1017 mb)
E 3.5 mph
(E 6 kph)
- 5SM
01:15
Clear
75°F / 24°C 73°F / 23°C 94% 30.04 in
(1017 mb)
Calm - 7SM
00:55
Clear
75°F / 24°C 73°F / 23°C 94% 30.04 in
(1017 mb)
Calm - 7SM
00:35
Clear
75°F / 24°C 73°F / 23°C 94% 30.04 in
(1017 mb)
Calm - 7SM
00:15
Clear
75°F / 24°C 73°F / 23°C 94% 30.04 in
(1017 mb)
SE 4.6 mph
(SE 7 kph)
- 7SM
Time Weather Temperature Dewpoint Humidity Pressure Winds Precip Visibility


Weather for websites

WeatherForYou.com, LLC is not responsible for any damages or problems caused by this service. Current weather conditions are obtained from the closest station including government and personal stations which may have varying degrees of accuracy. Weather forecasts are derived from the NOAA NDFD. Like all things, this site belongs to Jesus Christ... He just trusts us to maintain it. If you have any questions or comments email webmaster@weatherforyou.com

Copyright © 2016, WeatherForYou.com LLC. All rights reserved.